Stations météo

Publicité
Rodez, France (7552): Température de l'air & dewpoint: 11.12.2017 03:00:00 - 17.12.2017 03:00:00 (CET)Rodez, France (7552): Température de l'air 5cm: 11.12.2017 03:00:00 - 17.12.2017 03:00:00 (CET)Rodez, France (7552): Vitesse du vent & gusts: 11.12.2017 03:00:00 - 17.12.2017 03:00:00 (CET)Rodez, France (7552): Direction du vent: 11.12.2017 03:00:00 - 17.12.2017 03:00:00 (CET)Rodez, France (7552): reduced air pressure: 11.12.2017 03:00:00 - 17.12.2017 03:00:00 (CET)Rodez, France (7552): visibility: 11.12.2017 03:00:00 - 17.12.2017 03:00:00 (CET)Rodez, France (7552): Ensoleillement: 11.12.2017 03:00:00 - 17.12.2017 03:00:00 (CET)Rodez, France (7552): Quantités de précipitations: 11.12.2017 03:00:00 - 17.12.2017 03:00:00 (CET)
Date & Time tt [°C] td [°C] tt 5cm [°C] ff [km/h] ff [knt] fx [km/h] fx [knt] dd ppp [hPa] vv [km] sd [min] rr [mm]
17.12.2017 03:00:00 -0,3 -0,3 -0,7 16 9 26 14 NW 1027,9 13 0 0,0
17.12.2017 02:00:00 0,3 0,3 0,1 15 8 34 18 NW 1027,3 10 0 0,0
17.12.2017 01:00:00 0,5 0,5 0,2 20 11 29 16 NW 1026,7 13 0 0,0
17.12.2017 00:00:00 0,5 0,5 -0,4 18 10 29 15 NW 1026,9 10 0 0,0
16.12.2017 23:00:00 - - - - - - - - - - - -
16.12.2017 22:00:00 0,2 0,2 -0,4 14 8 24 13 NW 1026,0 19 0 0,0
16.12.2017 21:00:00 0,8 0,8 0,3 19 10 36 19 NW 1025,9 17 0 0,0
16.12.2017 20:00:00 0,8 0,8 0,0 17 9 28 15 WNW 1025,2 20 0 0,2
16.12.2017 19:00:00 0,9 0,9 0,2 16 8 38 21 NW 1024,0 2,9 0 0,0
16.12.2017 18:00:00 1,0 1,0 0,1 21 11 37 20 WNW 1022,8 13 0 0,0
16.12.2017 17:00:00 1,3 0,9 1,2 25 14 38 20 NW 1022,0 11 6 0,0
16.12.2017 16:00:00 1,8 1,1 2,1 21 11 35 19 WNW 1021,2 19 7 0,0
16.12.2017 15:00:00 2,0 1,3 2,4 24 13 32 18 WNW 1020,4 20 0 0,0
16.12.2017 14:00:00 2,1 1,4 2,4 20 11 28 15 W 1019,9 20 0 0,0
16.12.2017 13:00:00 2,4 1,1 3,3 21 11 32 18 NW 1019,8 10 32 0,0
16.12.2017 12:00:00 1,8 1,5 2,3 19 10 30 16 WNW 1019,8 14 33 0,0
16.12.2017 11:00:00 1,4 1,4 0,6 19 10 29 16 WNW 1019,4 14 24 0,0
16.12.2017 10:00:00 0,3 0,3 0,2 20 11 26 14 NW 1018,8 17 12 0,0
16.12.2017 09:00:00 0,0 0,0 0,1 19 10 32 18 NW 1017,5 9 0 0,0
16.12.2017 08:00:00 0,2 0,2 0,1 19 10 33 18 NW 1016,3 14 0 0,0
16.12.2017 07:00:00 0,1 0,1 -0,3 21 11 37 20 NW 1015,9 10 0 0,0
16.12.2017 06:00:00 -0,2 -0,2 -1,2 24 13 34 18 WNW 1015,0 10 0 0,0
16.12.2017 05:00:00 -0,1 -0,1 -0,7 18 10 31 17 WNW 1014,4 10 0 0,0
16.12.2017 04:00:00 0,2 0,2 -0,2 17 9 32 17 W 1014,1 39 0 0,0
16.12.2017 03:00:00 0,6 0,6 0,2 23 12 33 18 WNW 1013,1 45 0 0,0
16.12.2017 02:00:00 1,0 1,0 0,5 20 11 28 15 W 1012,2 29 0 0,0
16.12.2017 01:00:00 1,0 1,0 0,5 18 10 27 14 WNW 1011,8 10 0 0,0
16.12.2017 00:00:00 1,1 1,1 0,5 18 10 37 20 WNW 1011,2 46 0 0,0
15.12.2017 23:00:00 0,9 0,9 0,1 26 14 40 22 NW 1010,2 10 0 0,4
15.12.2017 22:00:00 0,5 0,5 0,1 13 7 34 18 W 1009,9 4,2 0 1,4
15.12.2017 21:00:00 0,6 0,6 0,1 23 13 37 20 NW 1009,2 2,4 0 2,8
15.12.2017 20:00:00 2,6 2,6 2,4 18 10 50 27 NW 1008,0 10 0 0,0
15.12.2017 19:00:00 2,8 2,7 2,5 37 20 72 39 WNW 1007,1 60 0 0,0
15.12.2017 18:00:00 3,6 3,2 2,9 44 24 68 37 W 1005,0 8 0 0,4
15.12.2017 17:00:00 3,5 3,1 2,8 26 14 45 24 WSW 1004,7 60 2 0,2
15.12.2017 16:00:00 2,0 2,0 0,6 7 4 45 24 WSW 1005,7 58 1 2,0
15.12.2017 15:00:00 4,3 3,7 3,9 22 12 36 20 W 1005,4 16 10 0,4
15.12.2017 14:00:00 4,8 3,5 - 26 14 39 21 W 1005,8 10 - 0,0
15.12.2017 13:00:00 3,9 3,8 3,7 22 12 37 20 W 1007,2 55 0 0,0
15.12.2017 12:00:00 3,3 3,3 3,3 19 10 37 20 W 1008,0 54 2 0,0
15.12.2017 11:00:00 3,3 3,3 3,4 19 10 34 19 W 1008,5 16 21 0,0
15.12.2017 10:00:00 3,8 3,8 2,5 22 12 32 17 WSW 1008,0 54 8 0,0
15.12.2017 09:00:00 2,6 2,6 0,9 18 10 27 15 WSW 1007,8 60 0 0,4
15.12.2017 08:00:00 2,0 2,0 1,3 13 7 21 12 W 1007,6 10 0 0,4
15.12.2017 07:00:00 1,8 1,8 1,1 10 6 18 10 WSW 1007,2 60 0 0,0
15.12.2017 06:00:00 1,8 1,8 1,0 8 4 28 15 W 1006,6 16 0 1,0
15.12.2017 05:00:00 1,5 1,5 0,3 14 8 19 10 NW 1007,3 12 0 0,6
15.12.2017 04:00:00 0,8 0,8 0,2 11 6 31 17 NW 1008,5 6 0 2,4
15.12.2017 03:00:00 2,3 2,3 2,2 21 11 58 32 NNW 1007,3 9 0 0,8
15.12.2017 02:00:00 6,2 5,5 5,7 39 21 61 33 W 1005,8 6 0 0,4
15.12.2017 01:00:00 6,9 5,0 6,0 34 18 59 32 W 1006,1 10 0 0,0
15.12.2017 00:00:00 7,1 5,2 5,8 35 19 63 34 W 1006,8 10 0 0,0
14.12.2017 23:00:00 6,9 6,0 6,1 31 17 55 30 WSW 1007,3 10 0 0,4
14.12.2017 22:00:00 7,2 5,7 6,2 38 21 65 35 WSW 1007,4 8 0 0,2
14.12.2017 21:00:00 7,4 5,4 6,0 34 18 51 27 WSW 1007,8 20 0 0,0
14.12.2017 20:00:00 7,2 6,0 6,4 28 15 50 27 WSW 1008,5 6 0 0,0
14.12.2017 19:00:00 7,7 5,3 6,7 25 14 41 22 WSW 1008,6 19 0 0,0
14.12.2017 18:00:00 7,5 5,6 6,1 25 14 53 29 WSW 1009,3 60 0 0,0
14.12.2017 17:00:00 7,6 5,6 6,7 28 15 46 25 WSW 1009,7 56 33 0,0
14.12.2017 16:00:00 8,5 5,4 7,7 31 17 56 30 W 1010,0 10 27 0,0
14.12.2017 15:00:00 7,9 6,7 7,4 20 11 29 16 SW 1010,4 20 0 0,0
14.12.2017 14:00:00 7,8 6,4 7,7 21 11 35 19 WSW 1011,5 10 0 0,2
14.12.2017 13:00:00 8,4 6,5 8,0 19 11 35 19 WSW 1012,2 20 5 0,0
14.12.2017 12:00:00 8,3 6,1 8,7 19 10 30 16 WSW 1013,2 20 9 0,0
14.12.2017 11:00:00 8,0 6,1 8,0 18 10 34 19 WSW 1014,3 10 22 0,0
14.12.2017 10:00:00 7,2 6,6 6,6 13 7 27 15 WSW 1015,0 15 0 0,0
14.12.2017 09:00:00 6,7 6,4 5,8 11 6 25 14 W 1015,2 10 0 0,0
14.12.2017 08:00:00 6,2 5,3 5,2 11 6 40 22 W 1015,1 10 0 0,6
14.12.2017 07:00:00 6,9 6,6 6,5 21 11 39 21 WNW 1014,5 3,5 0 0,2
14.12.2017 06:00:00 7,1 6,5 6,9 15 8 28 15 W 1014,4 10 0 0,0
14.12.2017 05:00:00 7,5 7,4 7,2 16 9 34 18 W 1014,4 10 0 0,4
14.12.2017 04:00:00 7,7 7,4 7,3 19 11 38 21 W 1014,6 11 0 0,0
14.12.2017 03:00:00 7,7 7,7 7,3 23 12 39 21 W 1014,5 15 0 0,4
14.12.2017 02:00:00 7,6 7,2 7,1 19 10 31 17 WSW 1014,4 59 0 0,0
14.12.2017 01:00:00 7,7 7,7 7,4 21 11 41 22 W 1014,9 2,6 0 1,4
14.12.2017 00:00:00 7,7 7,6 7,1 27 15 46 25 W 1014,6 6 0 0,6
13.12.2017 23:00:00 7,4 7,3 6,4 28 15 45 25 WSW 1014,4 12 0 0,0
13.12.2017 22:00:00 6,7 6,7 5,3 29 16 49 26 WSW 1014,7 8 0 0,0
13.12.2017 21:00:00 5,5 5,5 5,0 26 14 42 23 SW 1015,0 7 0 0,8
13.12.2017 20:00:00 5,3 5,3 4,7 18 10 29 15 SSW 1015,2 4,4 0 0,6
13.12.2017 19:00:00 5,0 5,0 - 9 5 18 10 S 1015,9 10 - -
13.12.2017 18:00:00 5,1 5,1 4,4 9 5 26 14 SSW 1016,3 10 0 0,8
13.12.2017 17:00:00 4,5 4,5 4,0 16 9 29 16 SW 1017,1 10 0 0,4
13.12.2017 16:00:00 4,1 4,1 3,9 14 8 29 16 SW 1017,8 4,2 0 0,6
13.12.2017 15:00:00 4,0 3,3 3,7 18 10 33 18 SW 1017,8 10 0 0,0
13.12.2017 14:00:00 4,2 1,9 3,9 16 8 24 13 SW 1019,0 12 0 0,2
13.12.2017 13:00:00 5,1 1,2 5,2 8 4 21 11 S 1019,4 59 0 0,0
13.12.2017 12:00:00 4,4 0,5 4,8 14 8 24 13 S 1020,2 60 3 0,0
13.12.2017 11:00:00 3,5 0,0 1,7 10 6 17 9 S 1021,4 60 17 0,0
13.12.2017 10:00:00 1,3 0,9 -0,3 12 6 15 8 SE 1021,8 43 7 0,0
13.12.2017 09:00:00 0,1 0,1 -1,4 10 5 13 7 SSE 1022,5 20 2 0,0
13.12.2017 08:00:00 0,1 0,1 -3,4 6 4 9 5 SE 1022,7 29 0 0,0
13.12.2017 07:00:00 -0,1 -0,1 -1,2 6 3 11 6 SSE 1022,8 18 0 0,0
13.12.2017 06:00:00 0,0 0,0 -0,6 5 3 6 4 - 1023,2 10 0 0,0
13.12.2017 05:00:00 -0,3 -0,3 -1,5 4 2 6 3 ESE 1023,3 10 0 0,0
13.12.2017 04:00:00 -1,2 -1,2 -2,0 2 1 8 4 S 1023,6 12 0 0,0
13.12.2017 03:00:00 -0,8 -0,8 -2,6 7 4 9 5 ESE 1023,5 12 0 0,0
13.12.2017 02:00:00 -1,0 -1,0 -1,7 6 3 15 8 SSE 1023,9 13 0 0,0
13.12.2017 01:00:00 -1,3 -1,3 -4,4 8 4 9 5 SE 1024,1 9 0 0,0
13.12.2017 00:00:00 -2,1 -2,1 -8,0 3 2 8 4 SE 1024,5 6 0 0,0
12.12.2017 23:00:00 -4,0 -4,0 -8,2 4 2 6 3 SSE 1024,9 2,4 0 0,0
12.12.2017 22:00:00 -1,4 -1,4 -7,8 3 2 4 2 SE 1023,3 5 0 0,0
12.12.2017 21:00:00 -1,6 -1,6 -6,5 2 1 12 6 SSW 1022,8 9 0 0,0
12.12.2017 20:00:00 -1,4 -1,4 -3,9 11 6 17 9 WSW 1022,6 10 0 0,0
12.12.2017 19:00:00 -0,3 -0,3 - 15 8 18 10 W 1021,8 13 - -
12.12.2017 18:00:00 -0,1 -0,1 -2,0 11 6 16 9 W 1020,7 10 0 0,0
12.12.2017 17:00:00 1,3 0,9 0,4 14 7 16 9 WNW 1019,6 30 3 0,0
12.12.2017 16:00:00 2,1 0,8 1,3 8 4 22 12 W 1018,3 47 1 0,0
12.12.2017 15:00:00 3,1 1,1 3,4 13 7 21 12 W 1017,7 56 1 0,0
12.12.2017 14:00:00 2,7 1,1 3,2 15 8 24 13 W 1017,3 54 0 0,0
12.12.2017 13:00:00 2,9 1,7 3,5 15 8 32 17 NW 1016,8 57 21 0,0
12.12.2017 12:00:00 2,5 2,2 - 13 7 24 13 WNW 1016,2 10 - 0,0
12.12.2017 11:00:00 2,3 2,3 2,4 16 9 24 13 WNW 1015,4 50 0 0,0
12.12.2017 10:00:00 2,1 2,1 2,2 18 10 29 15 NW 1014,2 17 8 0,0
12.12.2017 09:00:00 2,1 2,1 1,9 16 8 26 14 WNW 1012,9 0,3 0 0,0
12.12.2017 08:00:00 1,9 1,9 1,9 18 10 26 14 W 1011,7 10 0 0,0
12.12.2017 07:00:00 2,5 2,5 2,4 8 5 18 10 W 1010,1 60 0 0,2
12.12.2017 06:00:00 2,9 2,9 2,4 14 8 30 16 W 1008,2 8 0 0,0
12.12.2017 05:00:00 3,2 3,2 2,9 16 9 32 17 WSW 1006,8 6 0 0,2
12.12.2017 04:00:00 3,5 3,5 3,4 17 9 24 13 SW 1005,7 5 0 0,0
12.12.2017 03:00:00 3,7 3,3 3,4 13 7 25 13 WSW 1004,9 60 0 0,0
12.12.2017 02:00:00 3,9 3,9 3,6 16 9 29 15 WSW 1003,6 19 0 0,0
12.12.2017 01:00:00 4,0 3,7 3,7 19 10 34 18 WSW 1003,0 60 0 0,2
12.12.2017 00:00:00 4,0 3,9 3,8 19 10 30 16 W 1001,6 8 0 0,4
11.12.2017 23:00:00 4,0 4,0 3,7 11 6 32 17 W 1000,2 8 0 0,0
11.12.2017 22:00:00 4,1 4,1 3,6 21 11 38 21 W 998,9 10 0 0,0
11.12.2017 21:00:00 3,9 3,5 3,3 24 13 47 25 WSW 997,2 10 0 0,2
11.12.2017 20:00:00 4,5 4,2 3,9 24 13 42 23 SW 995,1 8 0 0,2
11.12.2017 19:00:00 4,7 3,8 3,7 22 12 35 19 SW 993,9 10 0 0,0
11.12.2017 18:00:00 4,8 4,1 4,3 22 12 44 24 SW 992,8 16 0 0,0
11.12.2017 17:00:00 4,6 4,3 4,1 9 5 21 11 SW 991,7 60 0 0,0
11.12.2017 16:00:00 4,2 3,9 4,0 11 6 35 19 SSW 991,1 20 0 1,0
11.12.2017 15:00:00 4,5 4,2 3,9 13 7 29 16 SW 990,8 10 0 0,2
11.12.2017 14:00:00 4,1 3,5 3,9 18 10 34 18 SW 990,7 10 0 2,0
11.12.2017 13:00:00 4,9 3,9 4,5 21 11 31 17 WSW 989,8 12 0 1,8
11.12.2017 12:00:00 5,7 4,2 5,1 14 8 34 19 SW 988,8 20 0 0,4
11.12.2017 11:00:00 5,9 5,3 5,4 13 7 22 12 SW 988,6 10 0 0,2
11.12.2017 10:00:00 5,9 5,0 5,5 8 4 27 14 WSW 988,2 46 0 0,0
11.12.2017 09:00:00 6,1 6,0 5,8 13 7 38 20 W 987,6 15 0 1,2
11.12.2017 08:00:00 6,9 6,3 6,4 17 9 34 18 W 986,3 6 0 0,8
11.12.2017 07:00:00 7,7 6,2 7,4 22 12 35 19 W 985,6 10 0 0,0
11.12.2017 06:00:00 9,5 5,9 8,5 15 8 33 18 SSE 982,3 10 0 0,0
11.12.2017 05:00:00 9,8 6,0 8,3 17 9 40 22 S 982,0 60 0 0,0
11.12.2017 04:00:00 9,1 5,8 7,7 31 17 47 25 SE 982,0 10 0 0,0
11.12.2017 03:00:00 8,9 5,8 7,8 34 18 49 26 SE 983,4 60 0 0,0

tt = Température de l'air
td = dewpoint
tt 5cm = Température de l'air 5cm
ff = Vitesse du vent
fx = gusts
dd = Direction du vent
ppp = reduced air pressure
vv = visibility
sd = Ensoleillement
rr = Quantités de précipitations

stations d'obs. à proximité